Total_Precipitation_Accumulation
1.81 1.98 1.96 1.95 2.05 2.11 1.96 1.76 1.70 1.66 1.70 1.78 1.96 2.03 2.00 2.04 2.14 2.19 2.16 2.43 2.52 2.50 2.47 2.45 2.42 2.49 2.48 2.39 2.46 2.61 2.82 2.87 2.56 2.11 2.01 1.97 1.92 1.79 1.72 1.59 1.46 1.39 1.22
1.70 1.90 1.97 1.98 2.02 2.00 1.84 1.68 1.65 1.66 1.73 1.81 1.93 1.94 1.87 1.88 2.07 2.11 2.18 2.39 2.48 2.38 2.35 2.35 2.17 2.20 2.24 2.11 2.21 2.28 2.39 2.58 2.54 2.26 2.23 2.21 2.16 2.02 1.95 1.86 1.67 1.45 1.21
1.60 1.93 2.09 2.09 2.03 1.95 1.77 1.57 1.53 1.58 1.70 1.75 1.76 1.78 1.83 1.93 2.03 2.05 2.06 2.06 2.06 2.12 2.30 2.39 2.21 2.20 2.08 2.02 2.03 1.98 2.04 2.16 2.34 2.28 2.22 2.26 2.20 2.18 2.08 1.86 1.73 1.60 1.30
1.47 1.67 1.79 1.70 1.66 1.67 1.60 1.51 1.46 1.50 1.57 1.64 1.71 1.79 1.85 1.91 1.94 2.00 2.03 1.97 1.95 2.00 2.12 2.17 2.14 2.08 2.00 2.05 1.95 1.91 1.95 2.07 2.20 2.23 2.18 2.29 2.31 2.23 2.22 2.03 2.02 1.89 1.72
1.17 1.30 1.44 1.44 1.42 1.41 1.47 1.52 1.54 1.63 1.63 1.69 1.74 1.76 1.76 1.76 1.66 1.68 1.73 1.75 1.88 1.86 1.78 1.80 1.80 1.83 1.81 1.81 1.66 1.77 1.94 2.03 2.09 2.12 2.12 2.27 2.44 2.48 2.31 2.24 2.29 2.24 2.07
1.05 1.16 1.37 1.49 1.52 1.52 1.55 1.64 1.68 1.69 1.69 1.72 1.68 1.73 1.73 1.48 1.60 1.59 1.57 1.70 1.81 1.81 1.71 1.62 1.54 1.51 1.45 1.43 1.39 1.45 1.68 1.85 1.93 2.01 2.01 2.15 2.38 2.58 2.66 2.61 2.49 2.40 2.34
1.18 1.32 1.51 1.61 1.69 1.70 1.66 1.75 1.72 1.72 1.76 1.73 1.67 1.66 1.69 1.74 1.74 1.56 1.42 1.43 1.56 1.60 1.57 1.56 1.40 1.31 1.42 1.37 1.40 1.37 1.39 1.52 1.63 1.79 1.88 1.89 2.07 2.32 2.54 2.51 2.59 2.61 2.54
1.43 1.61 1.72 1.83 1.79 1.77 1.76 1.78 1.85 1.92 1.94 1.90 1.84 1.75 1.77 1.75 1.68 1.47 1.45 1.41 1.45 1.47 1.51 1.53 1.53 1.45 1.46 1.56 1.55 1.49 1.38 1.34 1.40 1.48 1.59 1.71 1.91 2.17 2.42 2.40 2.42 2.48 2.49
1.53 1.66 1.82 1.92 1.97 1.99 2.01 1.96 2.00 2.07 2.02 1.95 1.91 1.95 1.90 1.92 1.95 1.74 1.71 1.58 1.61 1.63 1.64 1.66 1.65 1.56 1.65 1.58 1.52 1.51 1.46 1.44 1.48 1.54 1.51 1.62 1.84 1.95 2.08 2.15 2.12 2.16 2.07
1.56 1.68 1.86 2.08 2.14 2.17 2.29 2.34 2.27 2.23 2.11 2.13 2.13 2.11 2.11 2.15 2.36 2.14 1.94 1.79 1.83 1.83 1.91 1.90 1.91 1.73 1.70 1.60 1.48 1.50 1.50 1.52 1.57 1.53 1.48 1.46 1.49 1.67 1.84 1.85 1.99 2.11 1.97
1.59 1.72 1.92 2.09 2.17 2.23 2.37 2.44 2.43 2.40 2.38 2.31 2.24 2.26 2.26 2.28 2.44 2.19 1.98 1.87 1.94 2.06 2.05 1.96 2.00 1.95 1.73 1.70 1.62 1.56 1.55 1.53 1.53 1.54 1.51 1.48 1.51 1.60 1.68 1.75 1.94 2.11 2.10
1.52 1.63 1.75 1.91 1.95 2.03 2.26 2.36 2.43 2.46 2.41 2.32 2.26 2.14 2.18 2.17 2.11 2.00 1.89 1.83 1.91 2.04 2.12 2.03 1.98 1.91 1.65 1.54 1.41 1.39 1.39 1.28 1.24 1.36 1.39 1.41 1.42 1.41 1.46 1.63 1.81 1.90 1.95
1.56 1.68 1.81 1.89 1.96 2.07 2.16 2.16 2.22 2.30 2.27 2.17 2.16 2.09 2.06 2.08 2.05 1.80 1.58 1.55 1.59 1.64 1.81 1.90 1.79 1.66 1.43 1.24 1.19 1.16 1.06 0.95 1.00 1.08 1.09 1.09 1.11 1.17 1.30 1.46 1.63 1.71 1.68
1.64 1.68 1.75 1.87 1.90 1.92 2.03 2.11 2.21 2.31 2.39 2.30 2.19 2.09 2.06 2.00 1.87 1.68 1.48 1.41 1.50 1.60 1.69 1.71 1.56 1.44 1.25 1.13 1.05 0.96 0.91 0.95 0.99 1.02 1.04 1.08 1.13 1.20 1.25 1.30 1.39 1.49 1.52
1.54 1.58 1.62 1.64 1.73 1.81 1.85 1.93 1.94 2.03 2.03 2.02 1.98 1.94 1.91 1.85 1.68 1.59 1.45 1.34 1.41 1.53 1.59 1.61 1.49 1.44 1.35 1.25 1.17 1.12 1.10 1.12 1.07 1.05 1.10 1.11 1.13 1.18 1.20 1.22 1.33 1.33 1.28
1.60 1.62 1.54 1.50 1.56 1.60 1.63 1.62 1.62 1.55 1.54 1.49 1.48 1.47 1.46 1.40 1.29 1.17 1.14 1.13 1.17 1.31 1.36 1.51 1.58 1.54 1.49 1.42 1.30 1.20 1.15 1.11 1.06 1.07 1.11 1.12 1.11 1.13 1.19 1.19 1.24 1.27 1.20
1.49 1.54 1.52 1.48 1.53 1.52 1.53 1.55 1.59 1.52 1.41 1.33 1.28 1.25 1.26 1.24 1.18 1.14 1.15 1.18 1.16 1.21 1.25 1.40 1.48 1.43 1.40 1.35 1.24 1.12 1.07 1.08 1.15 1.16 1.17 1.16 1.21 1.23 1.28 1.26 1.23 1.28 1.24
1.28 1.35 1.45 1.55 1.58 1.61 1.64 1.67 1.73 1.78 1.72 1.54 1.37 1.26 1.18 1.12 1.05 1.05 1.08 1.07 1.04 1.06 1.16 1.28 1.31 1.25 1.22 1.19 1.15 1.09 1.07 1.14 1.23 1.21 1.20 1.21 1.23 1.24 1.27 1.29 1.26 1.23 1.22
1.22 1.25 1.26 1.31 1.40 1.47 1.48 1.52 1.59 1.67 1.70 1.59 1.42 1.30 1.16 1.07 0.98 0.95 0.93 0.90 0.95 1.05 1.18 1.22 1.24 1.23 1.15 1.11 1.10 1.05 1.02 1.05 1.14 1.20 1.18 1.20 1.21 1.23 1.23 1.21 1.26 1.26 1.18
1.18 1.20 1.19 1.17 1.17 1.19 1.22 1.29 1.38 1.47 1.51 1.42 1.31 1.18 1.04 0.97 0.85 0.80 0.76 0.76 0.84 0.91 1.00 1.07 1.10 1.06 0.98 0.99 1.00 0.98 0.95 1.01 1.12 1.15 1.12 1.16 1.22 1.22 1.15 1.13 1.14 1.18 1.11
1.16 1.13 1.11 1.09 1.08 1.08 1.11 1.17 1.22 1.26 1.28 1.21 1.12 0.96 0.85 0.76 0.68 0.64 0.64 0.70 0.79 0.88 0.95 1.00 1.00 0.94 0.92 0.95 0.99 1.00 0.97 1.02 1.09 1.10 1.11 1.16 1.21 1.21 1.14 1.11 1.09 1.11 1.12
1.12 1.00 0.94 0.94 0.98 1.02 1.03 1.08 1.13 1.13 1.09 1.03 0.95 0.80 0.73 0.65 0.57 0.55 0.58 0.65 0.71 0.82 0.85 0.85 0.88 0.87 0.85 0.86 0.93 0.99 1.02 1.06 1.14 1.16 1.13 1.14 1.18 1.19 1.20 1.17 1.16 1.14 1.15
1.15 1.01 0.92 0.88 0.87 0.90 0.92 0.98 1.02 0.99 0.91 0.84 0.78 0.73 0.70 0.69 0.58 0.55 0.60 0.68 0.74 0.75 0.72 0.73 0.78 0.82 0.84 0.87 0.88 0.96 1.02 1.07 1.11 1.12 1.17 1.20 1.19 1.16 1.17 1.12 1.12 1.13 1.13
1.18 1.10 0.97 0.85 0.86 0.89 0.91 0.94 0.94 0.91 0.85 0.79 0.75 0.72 0.72 0.73 0.67 0.64 0.68 0.78 0.77 0.70 0.67 0.70 0.74 0.76 0.80 0.86 0.85 0.86 0.90 0.97 0.96 0.97 0.99 1.04 1.06 1.08 1.10 1.09 1.09 1.08 1.10
1.13 1.10 1.01 0.88 0.82 0.82 0.83 0.87 0.90 0.89 0.84 0.76 0.73 0.73 0.76 0.79 0.76 0.73 0.73 0.73 0.70 0.66 0.62 0.67 0.72 0.73 0.76 0.78 0.80 0.81 0.82 0.79 0.79 0.83 0.86 0.91 0.97 1.06 1.12 1.12 1.12 1.11 1.11
0.97 0.91 0.85 0.76 0.69 0.68 0.73 0.79 0.80 0.80 0.77 0.72 0.70 0.72 0.71 0.71 0.69 0.63 0.60 0.59 0.58 0.58 0.59 0.64 0.71 0.72 0.75 0.76 0.69 0.67 0.64 0.60 0.63 0.71 0.73 0.79 0.91 1.00 1.05 1.10 1.09 1.11 1.09